Location: Bratislava
(48.1500°N, 17.1167°E)
Time: 01:26:46
(UTC+02:00)

Daily predictions for brighter satellites

Satellite Brightness Start Highest point End
(mag) Time Altitude Azimuth Time Altitude Azimuth Time Altitude Azimuth
H-2A R/B 3.5 00:07:36 32° NE 00:07:36 32° NE 00:10:53 10° N
USA 238 DEB 3.6 00:08:37 65° SW 00:09:46 87° NW 00:16:48 10° NE
USA 238 3.6 00:08:46 66° SW 00:09:52 87° NW 00:16:54 10° NE
Cosmos 1452 Rocket 3.8 00:10:49 65° NW 00:10:49 65° NW 00:15:46 10° NNE
Cosmos 1656 4.4 00:08:26 10° NNW 00:13:34 41° NE 00:13:54 40° ENE
SeaSat 1 2.9 00:11:36 10° NNE 00:15:32 57° NNE 00:15:32 57° NNE
CZ-4 R/B 4.4 00:14:07 10° NNE 00:18:01 58° NNE 00:18:01 58° NNE
Cosmos 1634 Rocket 3.9 00:12:54 10° NNW 00:19:13 75° W 00:19:22 75° WSW
Meteor 1-15 Rocket 4.3 00:19:35 70° WNW 00:19:35 70° WNW 00:25:19 10° N
Meteor 1-24 Rocket 3.9 00:25:31 10° N 00:30:35 68° NE 00:30:35 68° NE
SL-19 R/B 4.3 00:26:16 10° NNE 00:32:02 85° NW 00:32:02 85° NW
Meteor 2-20 Rocket 4.3 00:36:50 84° NW 00:36:50 84° NW 00:42:51 10° N
USA 215 4.2 00:30:38 10° ENE 00:36:47 46° NNW 00:42:57 10° W
Cosmos 2180 Rocket 4.4 00:32:25 10° N 00:38:52 80° E 00:38:55 80° E
ALOS 2 4.1 00:42:40 33° NW 00:42:40 33° NW 00:45:21 10° NNW
Meteor 2-11 Rocket 4.4 00:36:07 10° N 00:42:11 72° ENE 00:42:11 72° ENE
Mayak 0.2 00:38:35 10° N 00:41:20 36° NNW 00:41:20 36° NNW
NOSS 3-2 (C) 3.4 00:48:11 77° ENE 00:48:11 77° ENE 00:54:30 10° NE
COSMOS 2406 3.3 00:52:02 73° NNW 00:52:02 73° NNW 00:57:23 10° NNE
Cosmos 1980 Rocket 3.5 00:47:23 10° NNW 00:52:34 34° NE 00:54:03 30° E
ADEOS Rocket 4.0 00:46:56 10° N 00:54:22 52° WNW 00:56:28 41° WSW
Cosmos 1110 Rocket 4.5 00:56:24 56° NNE 00:56:24 56° NNE 01:00:33 10° NNE
Cosmos 1238 Rocket 4.4 00:57:24 10° N 01:00:39 38° NNE 01:00:39 38° NNE
CZ-4C R/B 2.8 01:00:13 10° NW 01:07:18 88° NE 01:08:34 66° SE
Cosmos 2344 3.5 01:07:54 65° SSE 01:08:33 68° SE 01:16:59 10° NE
Meteor 1-22 Rocket 4.4 01:12:19 75° NW 01:12:19 75° NW 01:18:15 10° N
ATLAS 3B R/B 3.2 01:12:50 39° W 01:15:11 55° NW 01:21:51 10° NE
Cosmos 1092 Rocket 4.2 01:18:17 58° E 01:18:17 58° E 01:24:18 10° NNE
CENTAUR R/B 2.5 01:21:02 71° ESE 01:21:02 71° ESE 01:27:47 10° NE
CZ-4B R/B 4.1 01:16:11 10° N 01:19:55 48° NNW 01:19:55 48° NNW
Cosmos 1833 Rocket 3.2 01:21:56 49° ENE 01:21:56 49° ENE 01:26:32 10° NE
CZ-4B R/B 4.2 01:27:24 17° NE 01:27:24 17° NE 01:29:03 10° NNE
Cosmos 1302 Rocket 4.4 01:27:49 61° NE 01:27:49 61° NE 01:32:10 10° NNE
NOSS 3-2 (A) 4.2 01:30:52 37° W 01:32:48 48° NW 01:39:26 10° NE
Cosmos 2369 4.2 01:27:32 10° NW 01:32:01 49° WNW 01:32:01 49° WNW
Cosmos 1626 4.3 01:31:08 10° N 01:33:04 24° NNE 01:33:04 24° NNE
Nadezhda 4 Rocket 3.9 01:34:37 77° W 01:34:37 77° W 01:40:47 10° N
Cosmos 2278 4.1 01:29:07 10° NNW 01:33:45 55° WNW 01:33:45 55° WNW
ASTEX 1 3.9 01:39:08 53° NNW 01:39:08 53° NNW 01:42:59 10° N
Cosmos 1697 Rocket 3.0 01:35:15 10° NNW 01:39:54 59° NW 01:39:54 59° NW
Meteor 1-21 Rocket 4.2 01:35:34 10° NNW 01:41:11 83° NNW 01:41:11 83° NNW
H-2A R/B 4.1 01:44:43 21° NW 01:44:43 21° NW 01:46:45 10° NW
Cosmos 2026 Rocket 4.1 01:44:54 59° ESE 01:45:22 61° E 01:51:36 10° NNE
Cosmos 2082 Rocket 2.3 01:46:47 70° E 01:46:47 70° E 01:52:04 10° NNE
Cosmos 2360 4.1 01:53:57 10° NNW 01:59:24 79° NW 01:59:24 79° NW
MOS 1 Rocket 4.4 01:57:00 10° N 02:01:02 37° WNW 02:01:02 37° WNW
S3M 4.5 01:56:07 10° N 02:02:08 54° ENE 02:03:43 43° ESE
Cosmos 968 Rocket 3.5 02:02:07 10° NNW 02:06:56 74° NNE 02:06:56 74° NNE
Cosmos 1503 Rocket 4.4 02:02:50 10° NNW 02:07:12 54° WNW 02:07:12 54° WNW
Cosmos 1992 Rocket 4.1 02:09:11 66° E 02:09:11 66° E 02:14:05 10° NNE
Cosmos 1953 3.8 02:11:43 34° NNW 02:11:43 34° NNW 02:14:18 10° N
SL-16 R/B 3.0 02:09:06 10° NNW 02:14:36 47° NE 02:18:02 22° ESE
Cosmos 1340 4.5 02:17:41 27° ENE 02:17:41 27° ENE 02:20:12 10° NNE
Meteor 1-16 Rocket 4.3 02:18:08 66° SE 02:18:46 72° E 02:24:41 10° NNE
CZ-2D R/B 3.1 02:13:58 10° NNE 02:18:57 36° E 02:19:53 34° ESE
USA 215 4.3 02:13:00 10° ENE 02:19:04 43° N 02:25:09 10° WNW
Cosmos 1470 4.4 02:21:48 29° NNW 02:21:48 29° NNW 02:24:13 10° N
SL-16 R/B 2.7 02:23:46 44° SE 02:25:52 72° ENE 02:32:08 10° NNW
Cosmos 1766 Rocket 4.3 02:23:40 10° N 02:27:52 45° ENE 02:28:06 45° E
COSMOS 2487 4.2 02:30:53 32° NE 02:30:53 32° NE 02:32:57 10° NNE
Cosmos 1655 Rocket 3.9 02:29:42 62° S 02:30:49 82° E 02:37:06 10° N
Cosmos 2360 Rocket 3.9 02:28:12 10° NNW 02:33:16 32° NE 02:38:18 10° ESE
Resurs 1-4 Rocket 2.6 02:29:21 10° NNE 02:34:28 48° E 02:35:21 44° SE
BREEZE-M R/B 3.4 02:35:37 40° E 02:35:37 40° E 02:38:25 10° E
CBERS-1 4.3 02:30:48 10° NNE 02:35:50 55° E 02:36:26 52° SE
SL-8 R/B 4.0 02:37:08 56° E 02:37:08 56° E 02:40:54 10° E
Cosmos 1980 Rocket 2.8 02:31:18 10° NW 02:35:46 43° W 02:35:46 43° W
Cosmos 1417 Rocket 4.4 02:33:00 10° NNW 02:39:15 69° W 02:40:10 60° SW
Aureole 2 Rocket 3.5 02:38:21 10° NNW 02:41:25 50° N 02:41:25 50° N
UNK 3.6 02:43:50 87° N 02:43:50 87° N 02:48:24 10° NNW
Cosmos 2322 Rocket 2.4 02:38:43 10° NNW 02:44:24 71° ENE 02:47:33 27° SE
Cosmos 1908 4.0 02:46:56 47° E 02:46:56 47° E 02:50:27 10° NNE
Lacrosse 5 1.8 02:47:08 68° SE 02:47:09 68° SE 02:52:11 10° ENE
Cosmos 2266 Rocket 4.1 02:51:08 42° SSE 02:53:11 68° E 02:59:13 10° NNE
CZ-4C R/B 4.1 02:49:33 10° WNW 02:53:41 24° W 02:53:41 24° W
Cosmos 1818 3.6 02:56:42 59° WSW 02:57:36 73° NW 03:03:07 10° NE
CZ-4B R/B 3.7 03:00:49 19° NW 03:00:49 19° NW 03:02:04 10° NNW
Meteor 1-11 4.2 02:53:57 10° NNW 02:59:26 60° W 02:59:58 57° WSW
NPP 3.5 02:54:54 10° NNE 03:00:20 84° WNW 03:01:22 60° SSW
Cosmos 1346 Rocket 3.9 03:02:56 34° NW 03:02:56 34° NW 03:06:03 10° N
IRS-1C 4.2 02:56:56 10° NNE 03:02:17 70° ESE 03:03:43 48° SSE
Cosmos 332 Rocket 3.8 03:02:34 63° SSE 03:03:13 74° ESE 03:08:05 10° NNE
H-2A R/B 3.1 02:59:42 10° NNE 03:04:04 53° E 03:04:56 45° SE
Cosmos 1833 Rocket 3.9 03:03:37 26° WNW 03:05:17 30° NW 03:10:15 10° NNE
Cosmos 1408 Rocket 3.4 03:01:59 10° N 03:06:21 88° E 03:06:40 77° SSE
Okean 3 Rocket 4.2 03:02:52 10° NNW 03:06:27 41° WNW 03:06:27 41° WNW
Cosmos 2315 Rocket 4.1 03:01:27 10° N 03:07:40 72° E 03:11:34 24° SSE
BREEZE-M DEB (TANK) 2.7 03:08:29 46° ENE 03:08:29 46° ENE 03:11:57 10° E
Cosmos 1743 Rocket 4.3 03:06:53 10° N 03:11:07 50° ENE 03:13:03 29° SE
CENTAUR R/B 3.8 03:08:11 21° W 03:12:03 38° NNW 03:18:52 10° NE
BREEZE-M DEB (TANK) 2.7 03:13:27 75° SE 03:13:27 75° SE 03:16:00 10° ENE
SL-08 R/B 3.4 03:14:11 56° WSW 03:14:26 57° W 03:19:18 10° NNW
Cosmos 883 Rocket 4.3 03:11:02 10° NNW 03:17:12 78° W 03:19:49 37° S
IRS-1D 3.5 03:12:44 10° NNE 03:17:56 86° ESE 03:19:32 46° S
Cosmos 2058 2.8 03:13:52 10° NNW 03:18:06 76° W 03:18:16 74° SW
Cosmos 2219 Rocket 4.4 03:16:35 10° N 03:21:19 26° NE 03:26:01 10° ESE
UNKNOWN OBJECT B 4.2 03:18:23 10° NNE 03:21:44 31° E 03:23:00 25° SE
Timation 2 Rocket 4.3 03:19:09 35° S 03:22:08 68° ESE 03:28:58 10° NNE
Spot 4 Rocket 4.2 03:17:01 10° NNE 03:22:11 67° ESE 03:24:15 36° S
deb Kosmos-1763 4.1 03:22:39 74° NW 03:22:39 74° NW 03:26:24 10° NNE
ADEOS II 3.4 03:20:49 10° NNE 03:25:39 36° E 03:29:33 15° SSE
Cosmos-2242 3.1 03:26:49 53° W 03:27:08 55° WNW 03:31:23 10° N
Cosmos 2082 Rocket 3.7 03:28:37 19° W 03:31:03 25° NW 03:35:41 10° N
Cosmos 1842 Rocket 3.9 03:30:07 35° SSE 03:31:52 62° E 03:36:19 10° NNE
COSMOS 2455 3.8 03:28:39 22° SSE 03:31:59 39° ESE 03:37:32 10° NE
IRS-P3 4.4 03:28:40 10° N 03:33:51 53° WNW 03:35:29 39° WSW
Cosmos 2322 4.2 03:30:25 10° NNW 03:36:03 60° ENE 03:41:38 10° SE
MOZ.5/SAFIR/RUBIN 5/SL-8 4.2 03:38:58 40° WSW 03:39:19 40° W 03:43:50 10° NNW
Cosmos 1300 2.9 03:40:42 41° SSE 03:41:52 68° E 03:45:41 10° NNE
In-Cosmos 22 Rocket 4.5 03:37:06 10° N 03:42:39 66° ENE 03:48:01 10° SSE
CZ-2D R/B 3.9 03:38:35 10° NNE 03:42:48 62° ESE 03:44:52 29° S
Cosmos 2237 4.5 03:37:20 10° NNW 03:43:04 71° ENE 03:48:44 10° SE
ARIANE 5 R/B 2.5 03:38:40 10° NNE 03:43:56 80° WNW 03:46:18 34° SSW
Cosmos 371 Rocket 3.7 03:43:56 37° WSW 03:45:22 50° WNW 03:50:09 10° NNE
Cosmos 1726 2.6 03:47:12 41° W 03:47:19 41° WNW 03:50:50 10° N
Cosmos 2084 3.1 03:44:50 10° NW 03:48:46 89° NE 03:52:38 10° SE
PSLV R/B 4.1 03:48:31 45° SW 03:49:10 51° W 03:53:12 10° NNW
Cosmos 1777 Rocket 4.5 03:44:49 10° NW 03:49:44 40° WSW 03:51:01 34° SW
Nadezhda 2 Rocket 4.4 03:47:03 26° SSW 03:50:45 84° W 03:56:54 10° N
Cosmos 1340 4.2 03:52:29 22° WNW 03:52:32 22° WNW 03:55:33 10° NNW
Cosmos 1892 4.0 03:49:12 10° N 03:52:51 40° ENE 03:56:27 10° SE
Cosmos 1244 Rocket 4.5 03:51:43 20° S 03:56:13 88° E 04:02:27 10° N
Cosmos 2151 3.5 03:53:02 10° NNW 03:57:04 39° W 03:57:47 36° WSW
BREEZE-M DEB (TANK) 2.8 03:51:11 10° W 03:57:08 76° N 03:59:42 10° E
SL-16 R/B 2.9 03:53:33 10° NW 03:58:31 32° WSW 03:59:47 29° SW
CZ-2D R/B 2.9 03:54:04 10° N 03:59:01 37° WNW 04:01:12 26° WSW
USA 215 3.6 03:55:06 10° ESE 04:01:35 70° NNE 04:08:05 10° NW
Cosmos 1833 4.2 04:04:46 22° SSW 04:08:27 78° ESE 04:14:07 10° NNE
SL-16 R/B 3.7 04:08:52 21° WSW 04:10:05 22° W 04:14:52 10° NW
Resurs 1-4 Rocket 3.3 04:09:39 10° N 04:14:03 28° WNW 04:16:25 20° WSW
Helios 1A Rocket 3.1 04:11:19 10° NNE 04:15:29 74° ESE 04:18:44 16° S
ADEOS 3.5 04:10:49 10° NNE 04:16:04 85° WNW 04:20:12 17° SSW
Tiangong 2 2.4 04:16:34 25° S 04:16:58 25° SSE 04:19:41 10° ESE
Cosmos 2360 Rocket 2.3 04:12:01 10° NW 04:17:32 52° WSW 04:23:00 10° S
Cosmos 405 Rocket 4.1 04:14:11 10° SSE 04:17:55 40° E 04:21:44 10° NNE
SL-8 R/B 4.0 04:15:10 17° W 04:18:27 43° SSW 04:22:58 10° SE
SAR-Lupe-2 3.4 04:16:35 12° S 04:19:50 70° WSW 04:23:25 10° NNW
Okean O Rocket 4.5 04:18:28 10° ENE 04:20:41 14° E 04:22:54 10° ESE
Cosmos 2221 2.4 04:17:58 20° SSW 04:20:49 75° W 04:25:08 10° N
Cosmos 304 Rocket 4.0 04:19:34 24° SW 04:22:19 57° WNW 04:27:05 10° NNE
Iridium 4 Rocket 4.3 04:17:39 10° NNW 04:23:07 42° W 04:27:09 18° SW
Cosmos 1633 Rocket 4.2 04:21:10 10° N 04:25:24 46° ENE 04:29:37 10° SSE
Cosmos 1898 Rocket 3.4 04:20:18 10° NNW 04:25:33 87° WSW 04:30:45 10° SSE
Cosmos 2322 Rocket 3.4 04:23:46 10° NW 04:27:53 21° W 04:29:14 19° WSW
Nadezhda 1 Rocket 4.0 04:22:07 10° N 04:28:18 88° WSW 04:34:32 10° S
Cosmos 1441 Rocket 3.3 04:25:03 13° S 04:28:23 74° E 04:32:14 10° NNE
Lacrosse 5 2.8 04:26:19 14° W 04:30:24 41° NNW 04:35:13 10° NE
COSMOS 2428 2.8 04:24:39 10° NNW 04:30:25 86° ENE 04:36:10 10° SSE
Meteor 1-28 Rocket 4.4 04:29:50 10° SE 04:33:28 45° ENE 04:37:07 10° N
Atlas Centaur 2 4.2 04:32:52 10° SSW 04:35:16 12° S 04:37:38 10° SSE
Cosmos 2333 4.2 04:31:26 10° NNW 04:37:14 77° WSW 04:42:57 10° SSE
Cosmos 2333 Rocket 2.6 04:32:08 10° NNW 04:37:55 71° ENE 04:43:39 10° SE
H-2A R/B 4.2 04:35:57 10° NNW 04:39:14 21° WNW 04:41:31 14° W
Cosmos 1408 3.6 04:36:28 10° N 04:40:08 51° ENE 04:43:46 10° SSE
Cosmos 2208 Rocket 4.2 04:34:52 11° SSW 04:40:13 84° ESE 04:45:43 10° NNE
Cosmos 1937 Rocket 3.5 04:38:22 10° NNW 04:43:44 84° WSW 04:49:02 10° SSE
BREEZE-M DEB (TANK) 3.7 04:41:18 17° WSW 04:44:35 70° SSE 04:57:05 10° E
Cosmos 1805 Rocket 3.6 04:40:46 10° NNW 04:45:01 56° W 04:49:15 10° S
Cosmos 2237 Rocket 3.4 04:41:41 10° NNW 04:47:11 47° NE 04:52:37 10° SE
Cosmos 1455 2.2 04:48:14 10° S 04:52:07 85° W 04:56:02 10° N
Cosmos 841 Rocket 4.5 04:48:52 10° S 04:53:46 46° ESE 04:58:40 10° NNE
UNKNOWN OBJECT B 4.1 04:53:08 10° NNW 04:56:05 22° WNW 04:58:25 13° WSW
Cosmos 990 Rocket 4.0 04:51:16 10° NNW 04:56:25 63° WSW 05:01:29 10° S
USA 229 DEB 3.8 04:50:21 10° SW 04:57:00 84° SE 05:04:00 10° NE
USA 229 3.8 04:50:26 10° SW 04:57:07 84° SE 05:04:07 10° NE
Cosmos 405 4.5 04:55:33 10° NW 04:58:04 19° W 04:59:56 13° SW
GENESIS II 4.3 04:58:50 13° SW 05:02:17 64° NW 05:06:14 10° NE
Cosmos 1814 Rocket 4.3 04:57:50 10° S 05:03:00 69° ESE 05:08:09 10° NNE
ADEOS II 2.8 05:00:35 10° N 05:05:22 36° WNW 05:10:08 10° SW
Cosmos 2219 Rocket 2.2 05:00:08 10° NNW 05:05:48 69° WSW 05:11:26 10° SSE
Cosmos 292 Rocket 3.9 05:00:59 10° SSW 05:05:51 87° ESE 05:10:45 10° NNE
Cosmos 1151 Rocket 4.1 05:02:21 10° SSE 05:06:28 47° E 05:10:38 10° NNE
Cosmos 1763 Rocket 3.5 05:01:53 10° SSW 05:06:57 85° ESE 05:12:07 10° NNE
Cosmos 2181 Rocket 4.2 05:04:14 10° N 05:10:42 83° E 05:17:09 10° S
PSLV R/B 4.0 05:08:07 10° NNE 05:11:52 70° ESE 05:15:32 10° S
Shenzhou-11 Module 4.0 05:12:13 10° SW 05:13:38 13° SSW 05:15:03 10° S
Meteor 1-27 4.3 05:07:56 10° SSW 05:13:43 81° WNW 05:19:27 10° N
Intercosmos 25 Rocket 3.6 05:11:39 10° N 05:15:16 87° W 05:20:38 10° S
Cosmos 2298 Rocket 4.1 05:11:10 10° NNW 05:16:26 63° WSW 05:21:41 10° S
ARGOS Delta rocket 3.9 05:12:33 10° S 05:16:59 51° W 05:21:40 10° NNW
COSMOS 2455 3.4 05:12:05 10° WSW 05:17:51 47° NW 05:23:40 10° NNE
SL-24 R/B - RUBIN 2 3.9 05:15:37 10° SW 05:20:18 56° NW 05:24:42 10° NNE
ARIANE 5 R/B 4.5 05:19:27 10° NNW 05:22:14 15° NW 05:25:01 10° W
Meteor 2-2 Rocket 4.5 05:16:53 10° SSW 05:22:36 59° WNW 05:28:29 10° N
Cosmos 1437 Rocket 2.8 05:19:16 10° NNW 05:23:15 74° W 05:27:16 10° S
CZ-2C R/B 4.4 05:19:17 10° NNE 05:23:22 29° E 05:27:22 10° SSE
SL-16 R/B 3.8 05:22:14 10° NNW 05:27:39 42° NE 05:33:02 10° SE
